Home > Weather > Haltern am See > Past weeks

Flag for Germany Past Weather in Haltern am See, North Rhine-Westphalia, Germany — Yesterday and Last 2 Weeks

Now
90 °F

Passing clouds.


Feels Like: 88 °F
Forecast: 66 / 89 °F
Wind: 6 mph from West

Location: Dortmund / Wickede

Current Time: Aug 26, 2016 at 2:18:52 PM

Latest Report: Aug 26, 2016 at 1:50 PM


Visibility: N/A

Pressure: 30.01 "Hg

Humidity: 31%

Dew Point: 55 °F

Location of Haltern am SeeLocation

Past Weather in Haltern am See — Graph

°F

Haltern am See Temperature Yesterday

Maximum temperature yesterday: 91 °F (at 3:50 PM)
Minimum temperature yesterday: 63 °F (at 6:20 AM)
Average temperature yesterday: 81 °F

High & Low Weather Summary for the Past Weeks

 TemperatureHumidityPressure
High91 °F (Aug 25, 3:50 PM)94% (Aug 12, 6:20 AM)30.36 "Hg (Aug 12, 6:20 AM)
Low48 °F (Aug 16, 6:20 AM)16% (Aug 25, 3:50 PM)29.80 "Hg (Aug 18, 2:50 PM)
Average67 °F58%30.08 "Hg
* Reported Aug 11 12:20 PM — Aug 26 12:50 PM, Haltern am See, Weather by CustomWeather, © 2016

Note: Actual official high and low records may vary slightly from our data, if they occured in-between our weather recording intervals... More about our weather records

Advertising

Haltern am See Weather History for the Previous 24 Hours

Scroll right to see more
 ConditionsComfort  
Time TempWeatherWind HumidityBarometerVisibility
12:50 PM
Fri, Aug 26
88 °FPassing clouds.5 mph33%30.01 "HgN/A
12:20 PM88 °FPassing clouds.5 mph33%30.01 "HgN/A
11:50 AM86 °FPassing clouds.5 mph35%30.01 "HgN/A
11:20 AM86 °FPassing clouds.7 mph35%30.01 "HgN/A
10:50 AM84 °FPassing clouds.6 mph35%30.01 "HgN/A
10:20 AM82 °FPassing clouds.8 mph37%30.01 "HgN/A
9:50 AM81 °FSunny.9 mph39%30.01 "Hg10 mi
9:20 AM79 °FSunny.9 mph39%29.98 "Hg10 mi
8:50 AM77 °FSunny.13 mph42%29.98 "Hg10 mi
8:20 AM75 °FSunny.12 mph44%29.98 "Hg10 mi
7:50 AM73 °FSunny.12 mph47%29.98 "Hg10 mi
7:20 AM72 °FClear.13 mph50%29.98 "Hg10 mi
6:50 AM70 °FClear.12 mph50%29.98 "Hg10 mi
6:20 AM70 °FClear.12 mph53%29.98 "Hg10 mi
5:50 AM70 °FClear.10 mph53%29.98 "Hg10 mi
5:20 AM70 °FClear.10 mph53%29.98 "Hg10 mi
9:50 PM
Thu, Aug 25
75 °FClear.2 mph39%29.98 "Hg10 mi
9:20 PM79 °FSunny.5 mph32%29.98 "Hg10 mi
8:50 PM79 °FSunny.6 mph32%29.98 "Hg10 mi
8:20 PM84 °FSunny.3 mph25%29.98 "Hg10 mi
7:50 PM84 °FSunny.6 mph27%29.98 "Hg10 mi
7:20 PM88 °FPassing clouds.8 mph22%29.95 "HgN/A
6:50 PM90 °FSunny.8 mph20%29.98 "Hg10 mi
6:20 PM90 °FSunny.8 mph18%29.98 "Hg10 mi
5:50 PM91 °FSunny.8 mph16%29.98 "Hg10 mi
5:20 PM91 °FPassing clouds.8 mph18%29.98 "HgN/A
4:50 PM91 °FPassing clouds.8 mph18%29.98 "HgN/A
4:20 PM91 °FPassing clouds.7 mph18%30.01 "HgN/A
3:50 PM91 °FPassing clouds.8 mph16%30.01 "HgN/A
3:20 PM90 °FPassing clouds.7 mph18%30.01 "HgN/A
2:50 PM90 °FPassing clouds.5 mph18%30.01 "HgN/A
2:20 PM88 °FPassing clouds.5 mph21%30.04 "HgN/A
Weather by CustomWeather, © 2016

See weather overviewHow to use our weather pages